www.pogodaiklimat.ru
Время
и дата
23:56 26.05
00:56 27.05
01:15 27.05
01:56 27.05
02:56 27.05
03:56 27.05
04:56 27.05
05:56 27.05
06:56 27.05
07:56 27.05
08:56 27.05
09:38 27.05
09:56 27.05
10:56 27.05
11:56 27.05
12:56 27.05
13:56 27.05
14:56 27.05
15:56 27.05
16:56 27.05
17:56 27.05
18:56 27.05
19:04 27.05
19:56 27.05
20:03 27.05
20:56 27.05
21:30 27.05
21:56 27.05
22:56 27.05
23:13 27.05
23:22 27.05
23:56 27.05
00:05 28.05
00:15 28.05
00:56 28.05
01:30 28.05
01:56 28.05
02:12 28.05
02:56 28.05
03:38 28.05
03:56 28.05
04:37 28.05
04:56 28.05
05:56 28.05
06:24 28.05
06:56 28.05
07:24 28.05
07:56 28.05
Ветер
(напр.,м/с)
Видим. Явления Облачность Т
(С)
Тd
(С)
f
(%)
Тe
(С)
Тes
(С)
Комфортность P
(гПа)
Po
(гПа)
Тmin
(С)
Tmax
(С)
R
(мм)
R24
(мм)
S
(см)
штиль 0 16 км ясно +8.3 +7.8 97 +7 +7 1022.3 1021.6
ЮВ 2 16 км ясно +8.3 +7.8 97 +6 +6 1022.1 1021.6
ЮВ 2 16 км 8/8 690 м +8.0 +8.0 100 +6 +6 1021.6
ЮВ 2 16 км 10/10 630 м +9.4 +8.9 97 +8 +8 1022.2 1021.6
ЮВ 2 16 км 10/10 630 м +9.4 +8.9 97 +8 +8 1022.1 1021.3
Ю 2 16 км 10/10 570 м +10.0 +8.9 93 +8 +8 1021.8 1021.3 +8.3 +10.6
штиль 0 16 км 10/10 510 м +10.6 +8.9 89 +10 +10 1021.7 1021.0
СВ 2 16 км 10/10 510 м +11.1 +8.9 86 +10 +10 1022.1 1021.6
СВ 3 16 км 10/10 510 м +11.7 +8.9 83 +10 +10 1022.4 1021.6
С 3 16 км 10/10 510 м +12.8 +9.4 80 +11 +11 1022.5 1022.0
СЗ 4 16 км 10/10 570 м +13.3 +9.4 77 +12 +12 1022.3 1021.6
С 4 16 км 5/5 570 м +15.0 +9.0 67 +14 +18 1021.3
С 3 16 км ясно +15.6 +10.0 69 +15 +24 1021.8 1021.3 +10.0 +15.6
СЗ 6 16 км ясно +16.7 +10.0 65 +16 +21 1021.4 1021.0
СЗ 7 16 км ясно +16.7 +10.0 65 +15 +20 1021.0 1020.3
СЗ 8
{10}
16 км ясно +16.1 +10.0 67 +14 +18 1021.2 1020.6
СЗ 7
{11}
16 км ясно +15.6 +10.6 72 +14 +19 1021.1 1020.6
С 7 16 км ясно +16.1 +10.6 70 +15 +19 1020.8 1020.3
С 7 16 км ясно +15.6 +11.1 75 +14 +18 1020.9 1020.3 +15.6 +17.8
С 8 16 км ясно +15.6 +10.0 69 +14 +15 1020.6 1019.9
С 7 16 км 2/2 390 м +14.4 +11.1 81 +12 +13 1020.7 1019.9
С 6 16 км 5/5 390 м +13.3 +10.6 84 +11 +11 1021.1 1020.6
С 5 16 км 8/8 390 м +13.0 +11.0 88 +11 +11 1020.6
С 4 16 км 8/8 390 м +12.2 +10.6 90 +10 +10 1021.2 1020.6
С 3 16 км ясно +12.0 +11.0 94 +10 +10 1020.6
С 3 16 км 8/8 360 м +12.2 +11.1 93 +11 +11 1021.5 1021.0
штиль 0 16 км 8/8 300 м +12.0 +11.0 94 +11 +11 1021.0
штиль 0 16 км 10/10 330 м +11.7 +10.6 93 +11 +11 1021.7 1021.0 +11.7 +15.6
штиль 0 16 км 8/8 570 м +11.7 +10.6 93 +11 +11 1021.4 1021.0
штиль 0 16 км 5/5 660 м +12.0 +10.0 88 +11 +11 1021.0
штиль 0 16 км 8/8 540 м +12.0 +11.0 94 +11 +11 1020.6
штиль 0 16 км 8/8 540 м +11.7 +10.6 93 +11 +11 1021.2 1020.6
штиль 0 16 км 5/5 480 м +12.0 +11.0 94 +11 +11 1020.6
З 2 16 км 8/8 600 м +12.0 +11.0 94 +11 +11 1020.6
штиль 0 16 км 8/8 300 м +11.1 +10.0 93 +10 +10 1021.3 1020.6
ЮВ 2 16 км 8/8 240 м +10.0 +9.0 93 +8 +8 1020.6
Ю 2 16 км 8/8 570 м +10.6 +10.0 96 +9 +9 1021.2 1020.6
ЮВ 3 16 км 5/5 630 м +10.0 +9.0 93 +8 +8 1020.6
Ю 2 16 км 2/2 630 м +10.0 +9.4 96 +8 +8 1021.2 1020.6
ЮВ 2 16 км 8/8 750 м +10.0 +10.0 100 +8 +8 1021.0
ЮВ 3 16 км 10/10 690 м +10.6 +10.0 96 +8 +8 1021.4 1021.0 +9.4 +12.2
ЮВ 3 16 км 5/5 600 м +10.0 +9.0 93 +8 +8 1021.0
ЮВ 3 16 км 2/0 3600 m
[Ac]
+10.0 +9.4 96 +8 +8 1021.6 1021.0
ЮВ 3 16 км 10/8 870 m
[Ac]
+10.6 +10.0 96 +8 +8 1022.0 1021.3
ЮВ 3 16 км 10/10 930 м +11.0 +10.0 94 +9 +9 1021.6
ЮВ 3 14 км 10/10 660 м +11.7 +10.6 93 +10 +10 1022.5 1022.0
ЮВ 3 16 км 10/10 690 м +12.0 +11.0 94 +10 +10 1022.3
В 3 16 км 10/10 570 м +13.3 +11.1 87 +12 +12 1022.9 1022.3
Местоположение метеостанции North Bend Municipal Airport: широта 43.4133 долгота -124.2436 высота над уровнем моря 5 м.
В архиве по умолчанию представлена погода в Норс-Бенде за последние 1-2 суток. Обновление информации о фактической погоде в базе происходит ежечасно! Архивные данные за месяц целиком и за предыдущие месяцы Вы можете получить, выбрав интересующий диапазон дат из раскрывающегося списка и нажав кнопку "Ввод!".
Внимание! Архив погоды МЕТАР в базе сайта по станциям, не включенным в климатический монитор, хранится не более 60 дней. Нет смысла пытаться выбрать более раннюю дату.
*Определитесь, кто Вы:
Внимание! Время в таблицах - местное (без учета летнего времени). Для получения всемирного времени необходимо вычесть поправку, которая равна -8 ч.
Смотрите также архив погоды в соседних городах и на ближайших метеорологических станциях:
Партнеры нашего сайта:      
Пояснения к столбцам:
  • Ветер - указаны скорость ветра в м/с - средняя за 10 мин, порывы в срок и между сроками (в фигурных скобках) и направление, откуда дует ветер: С - северный,
  • СВ - северо-восточный, В - восточный, ЮВ - юго-восточный, Ю - южный, ЮЗ - юго-западный, З - западный, СЗ - северо-западный.
  • Видимость - горизонтальная дальность видимости в метрах или километрах. При видимости от 1 до 10 км при отсутствии осадков обычно наблюдается дымка, при ухудшении видимости до 1 км и менее - туман. В сухую погоду видимость может ухудшаться дымом, пылью или мглою.
  • Явления - указаны атмосферные явления, наблюдавшиеся в срок или в последний час перед сроком; фигурными скобками обозначены явления, наблюдавшиеся между сроками (за 1-3 часа до срока); квадратными скобками обозначены град или гололедные отложения с указанием их диаметра в мм.
  • Облачность - указаны через наклонную черту общая и нижняя облачность в баллах и высота нижней границы облаков в метрах; квадратными скобками обозначены формы облаков: Ci - перистые, Cs - перисто-слоистые, Cc - перисто-кучевые, Ac - высококучевые, As - высокослоистые, Sc - слоисто-кучевые, Ns - слоисто-дождевые, Cu - кучевые, Cb - кучево-дождевые. Подробнее классификацию облаков см. в Атласе облаков (PDF).
  • T - Температура воздуха - температура, измеренная на высоте 2 м над землей.
  • Td - Температура точки росы - температура, при понижении до которой содержащийся в воздухе водяной пар достигнет насыщения.
  • f - Относительная влажность воздуха - влажноcть воздуха, измеренная на высоте 2 м над землей.
  • Te - Эффективная температура - температура, которую ощущает одетый по сезону человек в тени. Характеристика душности погоды. При расчете учитывается влияние влажности воздуха и скорости ветра на теплоощущения человека.
  • Tes - Эффективная температура на солнце - температура, которую ощущает человек, с поправкой на солнечный нагрев. Характеристика знойности погоды. Зависит от высоты солнца над горизонтом, облачности и скорости ветра. Ночью, в пасмурную погоду, а также при ветре 12 м/с и более поправка равна нулю.
  • P - Атмосферное давление - приведенное к уровню моря атмосферное давление.
  • Po - Атмосферное давление - измеренное на уровне метеостанции атмосферное давление.
  • Tmin - Минимальная температура - минимум температуры воздуха на высоте 2 м над землей.
  • Tmax - Максимальная температура - максимум температуры воздуха на высоте 2 м над землей.
  • R - Количество осадков - Количество выпавших осадков за период времени, мм. При наведении курсора мыши на число - период времени, за который выпало указанное количество осадков.
  • R24 - Количество осадков - Количество выпавших осадков за 24 часа, мм.
  • S - Снежный покров - Высота снежного покрова, см. При наведении курсора мыши на число - состояние снежного покрова и степень покрытия местности в баллах.